Find Starlink 11412

NORAD ID: 63062 Int'l Des: 2025-035 Owner: SPXS Country: US Constellation: starlink operational
LEOCIRCULAR

Live-Position

3D-Globus wird geladen...

Über Starlink 11412

Beschreibung wird geladen...

Nächste Überflüge

Passes for default location (London). Set your location on the main map for personalized predictions.

Höhenverlauf

Loading altitude history...

Zweizeiliger Elementsatz

1 63062U 25035L 26124.15258931 .00277057 00000-0 20687-2 0 9994
2 63062 42.9990 41.0329 0004085 250.9398 109.1028 15.71096252 69941
Epoch: 4. Mai 2026 • Age: 24 hours

Aktueller Status

Höhe 354.5 km
Geschwindigkeit 7.70 km/s
Subsatellitenpunkt 12.24°N, 123.01°E
Startdatum 21. Feb. 2025
Alter 1.1 years
Typ internet

Technische Details

Klassifizierung Payload
Masse 960.00 kg
Trockenmasse 910.00 kg
Gesamtmasse 960.00 kg
Länge 0.30 m
Durchmesser 4.10 m
Spannweite 29.00 m
Form Box + pan
Hersteller SPXS
Bus-Typ Starlink V2MD
Phasenstatus In Orbit
Besitzer/Staat SPXS/US

Most Searched